Location: Nelson
(41.2830°S, 173.2830°E)
Time: 06:02:34
(UTC+13:00)

Radarsat Rocket - Pass Details

Date: 06 October 2021
Orbit: 933 x 1492 km, 100.6° (Epoch: 23 October)

Event Time Altitude Azimuth Distance (km) Brightness Sun altitude
Rises 21:50:37 0° 176° (S) 4,135 7.6 -24.2°
Reaches altitude 10° 21:54:11 10° 191° (SSW) 3,064 7.1 -24.7°
Maximum altitude 21:58:41 19° 233° (SW) 2,332 6.8 -25.4°
Drops below altitude 10° 22:02:54 10° 275° (W) 2,820 7.0 -26.1°
Sets 22:06:01 0° 292° (WNW) 3,698 7.5 -26.6°
